Time,TemperatureF,DewpointF,PressureIn,WindDirection,WindDirectionDegrees,WindSpeedMPH,WindSpeedGustMPH,Humidity,HourlyPrecipIn,Conditions,Clouds,dailyrainin,SoftwareType,DateUTC
2013-11-02 00:02:00,71.8,67.7,30.06,North,6,24.0,37.0,87,0.00,,,0.00,Weather View 32 v70,2013-11-02 10:02:00,
2013-11-02 00:07:00,71.7,67.6,30.05,North,8,28.0,37.0,87,0.00,,,0.00,Weather View 32 v70,2013-11-02 10:07:00,
2013-11-02 00:12:00,71.6,67.5,30.03,NNE,16,33.0,37.0,87,0.00,,,0.00,Weather View 32 v70,2013-11-02 10:12:00,
2013-11-02 00:17:00,71.1,67.7,30.04,North,6,27.0,36.0,89,0.00,,,0.00,Weather View 32 v70,2013-11-02 10:17:00,
2013-11-02 00:22:00,70.8,67.7,30.05,North,10,24.0,36.0,90,0.00,,,0.00,Weather View 32 v70,2013-11-02 10:22:00,
2013-11-02 00:27:00,70.6,67.5,30.05,North,358,28.0,36.0,90,0.00,,,0.00,Weather View 32 v70,2013-11-02 10:27:00,
2013-11-02 00:32:00,70.8,67.1,30.05,North,358,30.0,36.0,88,0.00,,,0.00,Weather View 32 v70,2013-11-02 10:32:00,
2013-11-02 00:37:00,71.1,67.7,30.05,North,1,20.0,36.0,89,0.00,,,0.00,Weather View 32 v70,2013-11-02 10:37:00,
2013-11-02 00:42:00,70.9,67.8,30.05,North,7,30.0,40.0,90,0.00,,,0.00,Weather View 32 v70,2013-11-02 10:42:00,
2013-11-02 00:47:00,70.6,67.8,30.05,NNE,22,31.0,40.0,91,0.00,,,0.00,Weather View 32 v70,2013-11-02 10:47:00,
2013-11-02 00:52:00,70.2,67.4,30.03,North,4,27.0,40.0,91,0.00,,,0.00,Weather View 32 v70,2013-11-02 10:52:00,
2013-11-02 00:57:00,70.0,66.9,30.04,North,10,30.0,40.0,90,0.00,,,0.00,Weather View 32 v70,2013-11-02 10:57:00,
2013-11-02 01:02:00,70.3,67.2,30.03,North,359,27.0,40.0,90,0.00,,,0.00,Weather View 32 v70,2013-11-02 11:02:00,
2013-11-02 01:07:00,70.5,67.4,30.04,North,10,28.0,40.0,90,0.00,,,0.00,Weather View 32 v70,2013-11-02 11:07:00,
2013-11-02 01:12:00,70.7,67.3,30.01,North,6,28.0,40.0,89,0.00,,,0.00,Weather View 32 v70,2013-11-02 11:12:00,
2013-11-02 01:17:00,70.8,67.1,30.02,NNE,18,28.0,41.0,88,0.00,,,0.00,Weather View 32 v70,2013-11-02 11:17:00,
2013-11-02 01:22:00,70.8,67.1,30.04,North,359,31.0,41.0,88,0.00,,,0.00,Weather View 32 v70,2013-11-02 11:22:00,
2013-11-02 01:27:00,70.9,66.8,30.01,North,350,28.0,41.0,87,0.00,,,0.00,Weather View 32 v70,2013-11-02 11:27:00,
2013-11-02 01:32:00,70.9,66.5,30.02,North,355,36.0,41.0,86,0.00,,,0.00,Weather View 32 v70,2013-11-02 11:32:00,
2013-11-02 01:37:00,71.1,67.0,30.01,NNW,345,29.0,41.0,87,0.00,,,0.00,Weather View 32 v70,2013-11-02 11:37:00,
2013-11-02 01:42:00,71.0,67.3,30.01,North,5,34.0,41.0,88,0.00,,,0.00,Weather View 32 v70,2013-11-02 11:42:00,
2013-11-02 01:47:00,71.0,67.3,30.01,North,359,42.0,42.0,88,0.00,,,0.00,Weather View 32 v70,2013-11-02 11:47:00,
2013-11-02 01:52:00,70.9,66.8,30.03,North,357,32.0,42.0,87,0.00,,,0.00,Weather View 32 v70,2013-11-02 11:52:00,
2013-11-02 01:57:00,70.9,66.8,30.01,North,9,20.0,42.0,87,0.00,,,0.00,Weather View 32 v70,2013-11-02 11:57:00,
2013-11-02 02:02:00,70.9,67.2,30.01,NNE,19,19.0,42.0,88,0.00,,,0.00,Weather View 32 v70,2013-11-02 12:02:00,
2013-11-02 02:07:00,70.8,67.1,30.01,North,357,31.0,42.0,88,0.00,,,0.00,Weather View 32 v70,2013-11-02 12:07:00,
2013-11-02 02:12:00,70.9,66.8,30.01,North,357,29.0,42.0,87,0.00,,,0.00,Weather View 32 v70,2013-11-02 12:12:00,
2013-11-02 02:17:00,70.9,66.8,30.03,NE,35,24.0,42.0,87,0.00,,,0.00,Weather View 32 v70,2013-11-02 12:17:00,
2013-11-02 02:22:00,70.9,66.8,30.03,North,359,22.0,42.0,87,0.00,,,0.00,Weather View 32 v70,2013-11-02 12:22:00,
2013-11-02 02:27:00,70.8,66.4,30.02,NNE,25,17.0,42.0,86,0.00,,,0.00,Weather View 32 v70,2013-11-02 12:27:00,
2013-11-02 02:32:00,70.9,66.1,30.02,NNW,337,31.0,42.0,85,0.00,,,0.00,Weather View 32 v70,2013-11-02 12:32:00,
2013-11-02 02:37:00,71.2,65.8,30.00,NNW,339,25.0,42.0,83,0.00,,,0.00,Weather View 32 v70,2013-11-02 12:37:00,
2013-11-02 02:42:00,71.2,65.8,30.00,North,359,35.0,42.0,83,0.00,,,0.00,Weather View 32 v70,2013-11-02 12:42:00,
2013-11-02 02:47:00,71.2,66.1,30.00,NNE,12,23.0,42.0,84,0.00,,,0.00,Weather View 32 v70,2013-11-02 12:47:00,
2013-11-02 02:52:00,71.1,66.3,30.01,NNW,348,27.0,37.0,85,0.00,,,0.00,Weather View 32 v70,2013-11-02 12:52:00,
2013-11-02 02:57:00,71.0,65.9,30.01,NNW,340,28.0,37.0,84,0.00,,,0.00,Weather View 32 v70,2013-11-02 12:57:00,
2013-11-02 03:02:00,71.2,66.1,30.00,North,2,31.0,37.0,84,0.00,,,0.00,Weather View 32 v70,2013-11-02 13:02:00,
2013-11-02 03:07:00,71.1,66.0,30.00,North,8,30.0,37.0,84,0.00,,,0.00,Weather View 32 v70,2013-11-02 13:07:00,
2013-11-02 03:12:00,71.0,66.2,30.01,North,349,25.0,37.0,85,0.00,,,0.00,Weather View 32 v70,2013-11-02 13:12:00,
2013-11-02 03:17:00,71.5,65.7,30.00,NNW,344,28.0,37.0,82,0.00,,,0.00,Weather View 32 v70,2013-11-02 13:17:00,
2013-11-02 03:22:00,71.7,65.5,29.99,North,6,36.0,37.0,81,0.00,,,0.00,Weather View 32 v70,2013-11-02 13:22:00,
2013-11-02 03:27:00,71.8,64.9,30.01,NNW,346,32.0,39.0,79,0.00,,,0.00,Weather View 32 v70,2013-11-02 13:27:00,
2013-11-02 03:32:00,71.9,65.4,29.99,North,8,20.0,39.0,80,0.00,,,0.00,Weather View 32 v70,2013-11-02 13:32:00,
2013-11-02 03:37:00,72.3,64.3,29.99,NNW,330,28.0,42.0,76,0.00,,,0.00,Weather View 32 v70,2013-11-02 13:37:00,
2013-11-02 03:42:00,72.1,64.8,30.01,North,10,23.0,42.0,78,0.00,,,0.00,Weather View 32 v70,2013-11-02 13:42:00,
2013-11-02 03:47:00,71.9,65.4,30.00,NNW,345,24.0,42.0,80,0.00,,,0.00,Weather View 32 v70,2013-11-02 13:47:00,
2013-11-02 03:52:00,71.8,65.3,30.00,North,355,28.0,42.0,80,0.00,,,0.00,Weather View 32 v70,2013-11-02 13:52:00,
2013-11-02 03:57:00,71.9,65.4,29.99,NNW,346,28.0,42.0,80,0.00,,,0.00,Weather View 32 v70,2013-11-02 13:57:00,
2013-11-02 04:02:00,71.9,65.4,30.00,NNW,339,28.0,42.0,80,0.00,,,0.00,Weather View 32 v70,2013-11-02 14:02:00,
2013-11-02 04:07:00,72.2,65.3,30.00,NNW,343,24.0,42.0,79,0.00,,,0.00,Weather View 32 v70,2013-11-02 14:07:00,
2013-11-02 04:12:00,72.6,64.9,30.00,North,351,26.0,42.0,77,0.00,,,0.00,Weather View 32 v70,2013-11-02 14:12:00,
2013-11-02 04:17:00,72.5,64.9,30.00,North,2,24.0,42.0,77,0.00,,,0.00,Weather View 32 v70,2013-11-02 14:17:00,
2013-11-02 04:22:00,72.5,64.5,29.99,NNW,328,30.0,42.0,76,0.00,,,0.00,Weather View 32 v70,2013-11-02 14:22:00,
2013-11-02 04:27:00,73.0,63.8,29.99,North,349,19.0,42.0,73,0.00,,,0.00,Weather View 32 v70,2013-11-02 14:27:00,
2013-11-02 04:32:00,73.1,63.5,30.01,NNE,16,16.0,42.0,72,0.00,,,0.00,Weather View 32 v70,2013-11-02 14:32:00,
2013-11-02 04:37:00,72.8,63.6,30.01,North,357,20.0,40.0,73,0.00,,,0.00,Weather View 32 v70,2013-11-02 14:37:00,
2013-11-02 04:42:00,73.1,63.5,30.00,NNE,29,22.0,40.0,72,0.00,,,0.00,Weather View 32 v70,2013-11-02 14:42:00,
2013-11-02 04:47:00,73.2,63.6,30.00,NNW,348,25.0,40.0,72,0.00,,,0.00,Weather View 32 v70,2013-11-02 14:47:00,
2013-11-02 04:52:00,72.9,63.3,30.00,North,8,22.0,40.0,72,0.00,,,0.00,Weather View 32 v70,2013-11-02 14:52:00,
2013-11-02 04:57:00,73.2,63.2,29.98,North,10,20.0,38.0,71,0.00,,,0.00,Weather View 32 v70,2013-11-02 14:57:00,
2013-11-02 05:02:00,73.3,63.3,30.02,NNE,31,22.0,38.0,71,0.00,,,0.00,Weather View 32 v70,2013-11-02 15:02:00,
2013-11-02 05:07:00,72.8,63.6,30.01,NNW,348,21.0,38.0,73,0.00,,,0.00,Weather View 32 v70,2013-11-02 15:07:00,
2013-11-02 05:12:00,72.3,64.3,30.02,North,355,28.0,38.0,76,0.00,,,0.00,Weather View 32 v70,2013-11-02 15:12:00,
2013-11-02 05:17:00,72.0,64.7,30.01,North,350,28.0,38.0,78,0.00,,,0.00,Weather View 32 v70,2013-11-02 15:17:00,
2013-11-02 05:22:00,72.0,64.7,30.02,NNW,343,27.0,38.0,78,0.00,,,0.00,Weather View 32 v70,2013-11-02 15:22:00,
2013-11-02 05:27:00,71.9,65.0,30.00,NNW,342,38.0,39.0,79,0.00,,,0.00,Weather View 32 v70,2013-11-02 15:27:00,
2013-11-02 05:32:00,71.8,65.3,30.03,NW,314,19.0,40.0,80,0.00,,,0.00,Weather View 32 v70,2013-11-02 15:32:00,
2013-11-02 05:37:00,71.9,65.4,30.02,North,359,27.0,40.0,80,0.00,,,0.00,Weather View 32 v70,2013-11-02 15:37:00,
2013-11-02 05:42:00,71.8,65.3,30.03,North,349,30.0,40.0,80,0.00,,,0.00,Weather View 32 v70,2013-11-02 15:42:00,
2013-11-02 05:47:00,71.8,65.3,30.01,NNW,348,35.0,40.0,80,0.00,,,0.00,Weather View 32 v70,2013-11-02 15:47:00,
2013-11-02 05:52:00,71.8,64.9,30.03,North,357,21.0,40.0,79,0.00,,,0.00,Weather View 32 v70,2013-11-02 15:52:00,
2013-11-02 05:57:00,72.1,64.8,30.02,North,354,28.0,40.0,78,0.00,,,0.00,Weather View 32 v70,2013-11-02 15:57:00,
2013-11-02 06:02:00,72.3,64.7,30.03,NNW,341,27.0,40.0,77,0.00,,,0.00,Weather View 32 v70,2013-11-02 16:02:00,
2013-11-02 06:07:00,72.5,64.5,30.03,North,353,33.0,40.0,76,0.00,,,0.00,Weather View 32 v70,2013-11-02 16:07:00,
2013-11-02 06:12:00,72.5,64.5,30.04,NNW,341,29.0,40.0,76,0.00,,,0.00,Weather View 32 v70,2013-11-02 16:12:00,
2013-11-02 06:17:00,72.4,64.8,30.03,NW,325,33.0,40.0,77,0.00,,,0.00,Weather View 32 v70,2013-11-02 16:17:00,
2013-11-02 06:22:00,72.1,64.8,30.01,NNW,344,27.0,40.0,78,0.00,,,0.00,Weather View 32 v70,2013-11-02 16:22:00,
2013-11-02 06:28:00,71.8,64.9,30.05,NNE,16,21.0,40.0,79,0.00,,,0.00,Weather View 32 v70,2013-11-02 16:28:00,
2013-11-02 06:33:00,71.9,65.0,30.05,North,10,18.0,40.0,79,0.00,,,0.00,Weather View 32 v70,2013-11-02 16:33:00,
2013-11-02 06:38:00,71.9,65.0,30.04,NNE,16,21.0,40.0,79,0.00,,,0.00,Weather View 32 v70,2013-11-02 16:38:00,
2013-11-02 06:43:00,71.8,64.9,30.03,NNW,333,26.0,40.0,79,0.00,,,0.00,Weather View 32 v70,2013-11-02 16:43:00,
2013-11-02 06:48:00,71.8,65.3,30.04,North,352,22.0,40.0,80,0.00,,,0.00,Weather View 32 v70,2013-11-02 16:48:00,
2013-11-02 06:53:00,72.2,65.3,30.03,North,359,31.0,40.0,79,0.00,,,0.00,Weather View 32 v70,2013-11-02 16:53:00,
2013-11-02 06:58:00,72.3,65.4,30.05,North,355,29.0,40.0,79,0.00,,,0.00,Weather View 32 v70,2013-11-02 16:58:00,
2013-11-02 07:03:00,72.2,66.0,30.05,North,357,24.0,40.0,81,0.00,,,0.00,Weather View 32 v70,2013-11-02 17:03:00,
2013-11-02 07:08:00,72.2,66.0,30.06,NNW,343,19.0,40.0,81,0.00,,,0.00,Weather View 32 v70,2013-11-02 17:08:00,
2013-11-02 07:13:00,72.2,66.0,30.05,North,355,30.0,40.0,81,0.00,,,0.00,Weather View 32 v70,2013-11-02 17:13:00,
2013-11-02 07:18:00,72.1,65.9,30.05,North,8,13.0,40.0,81,0.00,,,0.00,Weather View 32 v70,2013-11-02 17:18:00,
2013-11-02 07:23:00,72.0,66.2,30.06,North,7,25.0,39.0,82,0.00,,,0.00,Weather View 32 v70,2013-11-02 17:23:00,
2013-11-02 07:28:00,72.2,66.7,30.06,North,354,21.0,39.0,83,0.00,,,0.00,Weather View 32 v70,2013-11-02 17:28:00,
2013-11-02 07:33:00,72.1,66.6,30.07,North,350,23.0,39.0,83,0.00,,,0.00,Weather View 32 v70,2013-11-02 17:33:00,
2013-11-02 07:38:00,72.2,66.7,30.06,NNE,16,24.0,39.0,83,0.00,,,0.00,Weather View 32 v70,2013-11-02 17:38:00,
2013-11-02 07:43:00,72.1,67.0,30.07,North,359,28.0,39.0,84,0.00,,,0.00,Weather View 32 v70,2013-11-02 17:43:00,
2013-11-02 07:48:00,72.2,66.7,30.05,NNW,347,20.0,39.0,83,0.00,,,0.00,Weather View 32 v70,2013-11-02 17:48:00,
2013-11-02 07:53:00,72.2,66.7,30.07,NNE,16,27.0,39.0,83,0.00,,,0.00,Weather View 32 v70,2013-11-02 17:53:00,
2013-11-02 07:58:00,72.4,66.9,30.06,North,350,23.0,39.0,83,0.00,,,0.00,Weather View 32 v70,2013-11-02 17:58:00,
2013-11-02 08:03:00,72.5,66.7,30.07,North,355,21.0,39.0,82,0.00,,,0.00,Weather View 32 v70,2013-11-02 18:03:00,
2013-11-02 08:08:00,73.0,67.2,30.06,NNE,22,24.0,39.0,82,0.00,,,0.00,Weather View 32 v70,2013-11-02 18:08:00,
2013-11-02 08:13:00,72.6,66.4,30.07,NNE,12,23.0,39.0,81,0.00,,,0.00,Weather View 32 v70,2013-11-02 18:13:00,
2013-11-02 08:18:00,72.7,66.9,30.08,NNE,18,22.0,39.0,82,0.00,,,0.00,Weather View 32 v70,2013-11-02 18:18:00,
2013-11-02 08:23:00,72.8,67.0,30.07,NNW,343,28.0,36.0,82,0.00,,,0.00,Weather View 32 v70,2013-11-02 18:23:00,
2013-11-02 08:28:00,72.8,67.0,30.07,NNE,13,24.0,36.0,82,0.00,,,0.00,Weather View 32 v70,2013-11-02 18:28:00,
2013-11-02 08:33:00,72.9,67.1,30.07,North,10,25.0,34.0,82,0.00,,,0.00,Weather View 32 v70,2013-11-02 18:33:00,
2013-11-02 08:38:00,72.7,66.9,30.07,North,357,28.0,34.0,82,0.00,,,0.00,Weather View 32 v70,2013-11-02 18:38:00,
2013-11-02 08:43:00,73.0,66.8,30.08,North,357,19.0,34.0,81,0.00,,,0.00,Weather View 32 v70,2013-11-02 18:43:00,
2013-11-02 08:48:00,73.1,66.9,30.07,NNE,26,14.0,34.0,81,0.00,,,0.00,Weather View 32 v70,2013-11-02 18:48:00,
2013-11-02 08:54:00,73.1,66.9,30.07,North,356,26.0,34.0,81,0.00,,,0.00,Weather View 32 v70,2013-11-02 18:54:00,
2013-11-02 08:59:00,73.1,67.3,30.07,North,11,29.0,37.0,82,0.00,,,0.00,Weather View 32 v70,2013-11-02 18:59:00,
2013-11-02 09:05:00,73.1,66.9,30.08,NNE,20,28.0,37.0,81,0.00,,,0.00,Weather View 32 v70,2013-11-02 19:05:00,
2013-11-02 09:11:00,73.2,67.0,30.06,NNE,29,25.0,37.0,81,0.00,,,0.00,Weather View 32 v70,2013-11-02 19:11:00,
2013-11-02 09:16:00,73.1,67.3,30.07,North,4,31.0,37.0,82,0.00,,,0.00,Weather View 32 v70,2013-11-02 19:16:00,
2013-11-02 09:21:00,73.9,67.7,30.06,NNE,16,29.0,37.0,81,0.00,,,0.00,Weather View 32 v70,2013-11-02 19:21:00,
2013-11-02 09:26:00,73.6,65.9,30.08,NNE,33,16.0,37.0,77,0.00,,,0.00,Weather View 32 v70,2013-11-02 19:26:00,
2013-11-02 09:31:00,73.8,66.9,30.07,NNW,345,29.0,39.0,79,0.00,,,0.00,Weather View 32 v70,2013-11-02 19:31:00,
2013-11-02 09:36:00,73.4,66.5,30.07,NNE,17,35.0,39.0,79,0.00,,,0.00,Weather View 32 v70,2013-11-02 19:36:00,
2013-11-02 09:41:00,73.2,65.9,30.08,NNE,17,24.0,39.0,78,0.00,,,0.00,Weather View 32 v70,2013-11-02 19:41:00,
2013-11-02 09:46:00,73.5,66.6,30.08,NNE,13,30.0,39.0,79,0.00,,,0.00,Weather View 32 v70,2013-11-02 19:46:00,
2013-11-02 09:51:00,73.6,66.3,30.07,North,1,34.0,39.0,78,0.00,,,0.00,Weather View 32 v70,2013-11-02 19:51:00,
2013-11-02 09:56:00,73.3,65.6,30.07,NNE,12,32.0,39.0,77,0.00,,,0.00,Weather View 32 v70,2013-11-02 19:56:00,
2013-11-02 10:01:00,73.9,66.2,30.07,NNE,26,29.0,39.0,77,0.00,,,0.00,Weather View 32 v70,2013-11-02 20:01:00,
2013-11-02 10:06:00,73.8,66.5,30.07,NNW,347,27.0,39.0,78,0.00,,,0.00,Weather View 32 v70,2013-11-02 20:06:00,
2013-11-02 10:11:00,73.5,66.2,30.08,North,6,31.0,39.0,78,0.00,,,0.00,Weather View 32 v70,2013-11-02 20:11:00,
2013-11-02 10:16:00,73.5,66.2,30.05,NNE,18,32.0,39.0,78,0.00,,,0.00,Weather View 32 v70,2013-11-02 20:16:00,
2013-11-02 10:21:00,73.7,66.4,30.05,North,4,24.0,39.0,78,0.00,,,0.00,Weather View 32 v70,2013-11-02 20:21:00,
2013-11-02 10:26:00,74.3,65.8,30.04,North,355,37.0,40.0,75,0.00,,,0.00,Weather View 32 v70,2013-11-02 20:26:00,
2013-11-02 10:31:00,74.5,66.4,30.07,North,4,28.0,41.0,76,0.00,,,0.00,Weather View 32 v70,2013-11-02 20:31:00,
2013-11-02 10:36:00,73.8,65.7,30.06,North,6,32.0,41.0,76,0.00,,,0.00,Weather View 32 v70,2013-11-02 20:36:00,
2013-11-02 10:41:00,74.0,65.9,30.05,NNW,347,31.0,41.0,76,0.00,,,0.00,Weather View 32 v70,2013-11-02 20:41:00,
2013-11-02 10:46:00,74.2,66.9,30.05,North,353,30.0,41.0,78,0.00,,,0.00,Weather View 32 v70,2013-11-02 20:46:00,
2013-11-02 11:48:00,74.3,66.6,30.02,NNE,19,26.0,39.0,77,0.00,,,0.00,Weather View 32 v70,2013-11-02 21:48:00,
2013-11-02 11:49:00,74.2,66.5,30.02,NNE,13,35.0,39.0,77,0.00,,,0.00,Weather View 32 v70,2013-11-02 21:49:00,
2013-11-02 11:50:00,74.1,66.0,30.00,North,9,36.0,39.0,76,0.00,,,0.00,Weather View 32 v70,2013-11-02 21:50:00,
2013-11-02 11:51:00,73.9,66.2,30.02,North,357,33.0,39.0,77,0.00,,,0.00,Weather View 32 v70,2013-11-02 21:51:00,
2013-11-02 11:52:00,74.0,66.3,30.02,NNE,19,23.0,39.0,77,0.00,,,0.00,Weather View 32 v70,2013-11-02 21:52:00,
2013-11-02 11:53:00,74.0,66.3,30.02,NNE,19,33.0,39.0,77,0.00,,,0.00,Weather View 32 v70,2013-11-02 21:53:00,
2013-11-02 11:54:00,74.1,66.8,30.03,North,357,29.0,39.0,78,0.00,,,0.00,Weather View 32 v70,2013-11-02 21:54:00,
2013-11-02 11:55:00,74.2,66.5,30.02,North,10,24.0,39.0,77,0.00,,,0.00,Weather View 32 v70,2013-11-02 21:55:00,
2013-11-02 11:56:00,74.3,67.0,30.02,NNE,14,31.0,39.0,78,0.00,,,0.00,Weather View 32 v70,2013-11-02 21:56:00,
2013-11-02 11:57:00,74.4,67.1,30.01,NNE,23,31.0,39.0,78,0.00,,,0.00,Weather View 32 v70,2013-11-02 21:57:00,
2013-11-02 11:58:00,74.3,66.6,30.02,NNE,20,32.0,39.0,77,0.00,,,0.00,Weather View 32 v70,2013-11-02 21:58:00,
2013-11-02 11:59:00,74.3,66.6,30.00,NNE,33,33.0,39.0,77,0.00,,,0.00,Weather View 32 v70,2013-11-02 21:59:00,
2013-11-02 12:00:00,74.5,67.2,30.02,NNE,23,24.0,39.0,78,0.00,,,0.00,Weather View 32 v70,2013-11-02 22:00:00,
2013-11-02 12:01:00,74.7,67.4,30.03,NNE,33,31.0,39.0,78,0.00,,,0.00,Weather View 32 v70,2013-11-02 22:01:00,
2013-11-02 12:10:00,74.1,66.0,30.02,NNE,16,30.0,42.0,76,0.00,,,0.00,Weather View 32 v70,2013-11-02 22:10:00,
2013-11-02 12:15:00,74.2,66.9,29.99,North,354,36.0,42.0,78,0.00,,,0.00,Weather View 32 v70,2013-11-02 22:15:00,
2013-11-02 12:20:00,74.4,66.7,30.02,NNE,12,30.0,42.0,77,0.00,,,0.00,Weather View 32 v70,2013-11-02 22:20:00,
2013-11-02 12:25:00,74.5,66.4,30.01,North,4,32.0,42.0,76,0.00,,,0.00,Weather View 32 v70,2013-11-02 22:25:00,
2013-11-02 12:30:00,74.0,66.3,29.99,North,3,35.0,42.0,77,0.00,,,0.00,Weather View 32 v70,2013-11-02 22:30:00,
2013-11-02 12:35:00,74.4,66.3,30.02,NNE,21,28.0,42.0,76,0.00,,,0.00,Weather View 32 v70,2013-11-02 22:35:00,
2013-11-02 12:40:00,74.3,65.8,30.00,North,359,29.0,42.0,75,0.00,,,0.00,Weather View 32 v70,2013-11-02 22:40:00,
2013-11-02 12:45:00,74.0,66.3,29.99,North,4,36.0,42.0,77,0.00,,,0.00,Weather View 32 v70,2013-11-02 22:45:00,
2013-11-02 12:50:00,74.3,66.6,29.99,NNE,16,30.0,42.0,77,0.00,,,0.00,Weather View 32 v70,2013-11-02 22:50:00,
2013-11-02 12:55:00,74.0,65.9,29.99,NNE,12,32.0,42.0,76,0.00,,,0.00,Weather View 32 v70,2013-11-02 22:55:00,
2013-11-02 13:00:00,74.1,66.4,29.98,NW,318,28.0,42.0,77,0.00,,,0.00,Weather View 32 v70,2013-11-02 23:00:00,
2013-11-02 13:05:00,74.1,67.1,30.00,NNE,16,39.0,41.0,79,0.00,,,0.00,Weather View 32 v70,2013-11-02 23:05:00,
2013-11-02 13:10:00,73.3,66.7,29.98,NNE,18,36.0,41.0,80,0.00,,,0.00,Weather View 32 v70,2013-11-02 23:10:00,
2013-11-02 13:15:00,73.3,66.4,29.96,North,8,39.0,41.0,79,0.00,,,0.00,Weather View 32 v70,2013-11-02 23:15:00,
2013-11-02 13:20:00,73.6,67.0,29.98,North,1,33.0,42.0,80,0.00,,,0.00,Weather View 32 v70,2013-11-02 23:20:00,
2013-11-02 13:25:00,73.5,66.6,29.99,North,9,29.0,42.0,79,0.00,,,0.00,Weather View 32 v70,2013-11-02 23:25:00,
2013-11-02 13:30:00,74.0,67.0,29.98,NNE,20,30.0,42.0,79,0.00,,,0.00,Weather View 32 v70,2013-11-02 23:30:00,
2013-11-02 13:35:00,73.7,66.4,29.98,North,357,31.0,42.0,78,0.00,,,0.00,Weather View 32 v70,2013-11-02 23:35:00,